Flag for Japan Weather past 2 weeks in Niigata, Japan

Now
77 °F

Warm.


Feels Like: 78 °F
Forecast: 76 / 85 °F
Wind: 1 mph from South

Location: Niigata

Current Time: Jul 29, 2015 at 1:18:47 AM

Latest Report: Jul 29, 2015 at 12:00 AM


Visibility: N/A

Pressure: 29.77 "Hg

Humidity: 88%

Dew point: 73 °F

Location of NiigataLocation

Historic Weather in Niigata — Graph

°F

Niigata temperature yesterday

Maximum temperature yesterday: 83 °F (at 5:00 PM)
Minimum temperature yesterday: 76 °F (at 9:00 AM)
Average temperature yesterday: 79 °F

Past Weeks' High & Low Weather Summary

 TemperatureHumidityPressure
High92 °F (Jul 21, 10:00 AM)97% (Jul 20, 1:00 AM)29.98 "Hg (Jul 20, 1:00 AM)
Low71 °F (Jul 18, 11:00 PM)52% (Jul 17, 11:00 AM)29.59 "Hg (Jul 17, 1:00 PM)
Average80 °F77%29.80 "Hg
* Reported Midnight between Jul 13 and Jul 14 — Midnight between Jul 28 and Jul 29, Niigata, Weather by CustomWeather, © 2015

Note: Actual official high and low records may vary slightly from our data, if they occured in-between our weather recording intervals... More about our weather records

Advertising

Niigata weather history for previous 24 hours

 ConditionsComfort  
Time TempWeatherWind HumidityBarometerVisibility
12:00 AM
Wed, Jul 29
77 °FWarm.1 mph88%29.77 "HgN/A
11:00 PM
Tue, Jul 28
78 °FWarm.1 mph87%29.77 "HgN/A
10:00 PM78 °FWarm.2 mph84%29.79 "HgN/A
9:00 PM79 °FOvercast.1 mph82%29.78 "Hg6 mi
8:00 PM80 °FWarm.2 mph79%29.78 "HgN/A
7:00 PM80 °FWarm.7 mph79%29.77 "HgN/A
6:00 PM82 °FPassing clouds.3 mph72%29.75 "Hg6 mi
5:00 PM83 °FWarm.5 mph73%29.75 "HgN/A
3:00 PM83 °FScattered clouds.6 mph77%29.74 "Hg9 mi
2:00 PM80 °FWarm.5 mph85%29.75 "HgN/A
1:00 PM77 °FWarm.5 mph93%29.77 "HgN/A
12:00 PM76 °FRain showers. Overcast.6 mph95%29.78 "Hg1 mi
11:00 AM77 °FMild.5 mph95%29.78 "HgN/A
10:00 AM76 °FMild.5 mph95%29.79 "HgN/A
9:00 AM76 °FRain. Overcast.6 mph95%29.79 "Hg3 mi
8:00 AM78 °FWarm.8 mph87%29.78 "HgN/A
7:00 AM79 °FWarm.6 mph88%29.76 "HgN/A
5:00 AM78 °FWarm.5 mph78%29.75 "HgN/A
4:00 AM79 °FWarm.5 mph89%29.74 "HgN/A
3:00 AM80 °FOvercast.2 mph84%29.72 "Hg12 mi
2:00 AM80 °FWarm.3 mph86%29.71 "HgN/A
1:00 AM80 °FWarm.1 mph86%29.72 "HgN/A
Weather by CustomWeather, © 2015

See weather overviewHow to use our weather pages